STARLINK-36462, 67321

Orbit data source: Space-Track

STARLINK-36462, 67321 is a payload satellite owned by SpaceX/Seattle (US) in LEO that was launched on Sun, 04 Jan 2026 UTC via an FALCON 9 launch vehicle from the Air Force Eastern Test Range (AFETR). Payload-class satellites include a variety of spacecraft equipped with specific instruments for various scientific and technological missions. These include communications satellites like Starlink; space stations such as the ISS; scientific satellites like the Hubble; Earth observation satellites from companies like Planet Labs, Umbra, and HawkEye 360; GPS; miniature CubeSats for education and research; and military/defense satellites.

Loading next visibility...
Identifier
67321, 2026-002S
Orbit
LEO
Country
Flag of USUS
Related business
Manufacturer
SpaceX/Seattle
Mission
Operational Commercial Communications
Bus & Motor
STARLINK V2MO, Unknown motor
Mass
575 kg wet, ~530 kg dry
Launch date (UTC)
2026-01-04 (6 months ago)
Launch vehicle
FALCON 9
Launch site
Air Force Eastern Test Range (AFETR)
Object type
Payload
Rocket body
Debris
Shape & HBR
Box + 2 Pan, 17.7 m
Radar Cross Section
36.964 m², Large (>1 m²)

Expand to show TLE details & history
Last TLE update: 19 hours ago

TLE from 19 hours ago
0 STARLINK-36462
1 67321U 26002S   26171.20016602  .00015661  00000-0  57741-3 0  9999
2 67321  43.0042 106.5955 0001225 268.3213  91.7499 15.27580437 26751
Epoch: 2026-06-20T04:48Z
TLE epoch observation values (Epoch: 2026-06-20T04:48:14.344Z)
Latitude
0.00004°
Longitude
126.11757°
Altitude
482.849 km
Speed
7.626 km/s
True Right ascension
07h 06m 22s
True Declination
0° 00' 00"
Sunlit
Object was in daylight at epoch
Visualization orbit readout
Latitude
Unknown
Longitude
Unknown
Altitude
Unknown
Speed
Unknown
Apparent Right ascension
Unknown
Apparent Declination
Unknown
Sunlit
N/A
Visualization observer readout
Local Sidereal Time
10:17:11
Azimuth
Unknown
Elevation
Unknown
Doppler factor
Unknown
Orbital elements
Apogee altitude
485.833 km
Perigee altitude
484.152 km
Semi-major axis
6,863.129 km
Eccentricity
0.00012
Inclination
43.0042°
RAAN
106.5955°
Arg. of periapsis
268.3213°
True anomaly
91.76393°
Mean anomaly
91.7499°
Eccentric anomaly
91.75692°
Mean motion
3.81733 °/min
Orbital period
94.31 mins
BSTAR
0.00057741
Loading maneuver chart data...
Computing Atmospheric mass density...
Loading historical data...
Loading historical data...
Loading historical data...
Loading historical data...
Loading historical data...
Loading historical data...
Loading historical data...

Documentation

Showing up to 5 results
|